Location: Newark
(21.1200°N, 73.4000°E)
Time: 11:14:07
(UTC+00:00)

SR - Pass Details

Date: 29 January 2020
Orbit: 575 x 880 km, 66.7° (Epoch: 26 February)

Event Time Altitude Azimuth Distance (km) Brightness Sun altitude
Rises 15:36:05 0° 209° (SSW) 3,293 ? -37.5°
Reaches altitude 10° 15:38:28 10° 212° (SSW) 2,404 ? -38.1°
Enters shadow 15:39:48 18° 216° (SW) 1,925 ? -38.4°
Maximum altitude 15:44:00 63° 293° (WNW) 947 - -39.4°
Drops below altitude 10° 15:49:50 10° 14° (NNE) 2,526 - -40.7°
Sets 15:52:24 0° 18° (NNE) 3,472 - -41.3°
